SCP
0 0 0 0 0 0 0 0 0 0 0 0 0 0 0 0 0 0 0 0 0 0
0 0 0 0 0 0 0 0 0 0 0 0 0 0 0 0 0 0 0 0 0 0
0 0 0 0 0 0 0 0 0 0 0 0 0 0 0 0 0 0 0 0 0 0
0 0 0 0 0 0 0 0 0 0 0 0 0 0 0 0 0 0 0 0 -0 -0
0 0 0 0 0 0 0 0 0 0 0 0 0 0 0 0 0 0 0 0 -0 -0
0 0 0 0 0 0 0 0 0 0 0 0 0 0 0 0 0 0 0 0 0 0
0 0 0 0 0 0 0 0 0 0 0 0 0 0 0 0 0 0 0 0 0 0
0 0 0 0 0 0 0 0 0 0 0 0 0 0 0 0 0 0 0 0 0 0
0 0 0 0 0 0 0 0 0 0 0 0 0 -0 -0 0 0 0 0 0 0 0
0 0 0 0 0 0 0 0 0 0 0 0 0 -0 -0 0 0 0 0 0 0 0
0 0 0 0 0 0 0 0 0 0 0 0 0 -0 0 0 0 0 0 0 0 0
0 0 0 0 0 0 0 0 0 0 0 0 0 -0 0 0 0 0 0 0 0 0
0 0 0 0 0 0 0 0 0 0 0 0 0 0 0 0 0 0 0 0 0 0
0 0 0 0 0 0 0 0 0 0 0 0 0 0 0 0 0 0 0 0 0 0
Wind_Speed_500mb
15 12 11 11 11 14 16 19 20 21 23 23 23 24 27 30 33 36 38 40 41 42
7 6 5 7 11 15 17 18 20 23 25 26 27 30 33 37 40 42 46 48 52 55
3 4 8 12 14 18 21 23 24 26 28 31 36 40 44 47 50 53 55 60 63 64
3 4 7 12 17 21 24 26 28 31 34 38 43 47 51 56 60 64 66 68 71 72
7 9 13 17 22 27 30 33 35 37 41 45 49 54 60 64 68 72 74 76 78 82
15 16 20 23 28 32 36 40 41 43 48 52 57 62 66 70 73 75 77 79 81 81
24 27 29 29 33 39 44 48 50 51 55 58 62 67 71 75 79 82 83 84 85 85
34 37 37 37 39 44 48 51 51 51 55 57 62 66 71 75 78 80 82 84 86 85
43 46 46 43 45 46 50 55 55 56 59 63 67 70 72 73 77 78 81 85 86 84
53 53 50 47 47 48 54 59 59 59 62 66 68 70 73 75 78 80 82 81 79 78
58 55 50 48 48 53 57 61 60 61 63 66 67 71 74 76 79 79 77 73 71 68
57 56 54 52 53 55 58 62 61 61 63 66 68 71 72 74 75 75 73 69 64 66
60 59 59 55 52 55 60 63 61 62 63 65 69 67 69 69 67 68 68 69 73 72
62 62 58 55 54 56 61 63 61 63 62 65 67 65 63 61 55 59 66 70 75 75
Wind_Direction_500mb
100 83 59 49 34 21 15 12 10 3 0 357 353 350 347 346 345 342 338 334 329 324
85 69 66 38 17 9 4 358 351 346 343 342 339 338 335 333 329 329 327 325 321 318
143 40 20 14 356 348 342 339 333 329 326 325 326 327 328 327 326 324 324 323 321 317
242 308 333 336 336 333 331 329 325 325 326 325 326 325 325 325 325 325 323 322 321 318
255 291 313 325 329 328 325 323 322 320 320 323 324 326 327 327 326 325 322 321 319 317
262 281 295 308 316 321 323 322 319 318 322 324 326 326 326 325 324 321 319 316 313 311
264 276 284 296 309 317 320 319 317 317 320 322 323 323 322 321 319 318 316 314 310 307
268 274 280 289 300 305 312 315 313 312 315 317 318 319 319 319 317 316 314 311 308 307
269 273 276 281 288 294 305 311 311 311 315 317 320 321 321 321 319 317 314 312 311 311
266 268 272 277 285 294 302 307 307 310 313 316 320 321 322 322 319 316 314 312 311 312
266 266 268 276 285 292 298 303 303 306 310 315 321 322 322 320 317 314 314 314 317 318
269 263 265 272 281 287 295 299 298 303 310 316 320 321 319 318 316 315 314 319 324 324
267 263 264 270 279 288 294 297 298 303 310 315 319 321 320 319 316 315 319 324 324 323
264 262 266 272 280 287 295 296 297 303 311 315 317 319 319 321 320 323 323 315 314 316
Wind_Speed_850mb
15 12 11 11 11 14 16 19 20 21 23 23 23 24 27 30 33 36 38 40 41 42
7 6 5 7 11 15 17 18 20 23 25 26 27 30 33 37 40 42 46 48 52 55
3 4 8 12 14 18 21 23 24 26 28 31 36 40 44 47 50 53 55 60 63 64
3 4 7 12 17 21 24 26 28 31 34 38 43 47 51 56 60 64 66 68 71 72
7 9 13 17 22 27 30 33 35 37 41 45 49 54 60 64 68 72 74 76 78 82
15 16 20 23 28 32 36 40 41 43 48 52 57 62 66 70 73 75 77 79 81 81
24 27 29 29 33 39 44 48 50 51 55 58 62 67 71 75 79 82 83 84 85 85
34 37 37 37 39 44 48 51 51 51 55 57 62 66 71 75 78 80 82 84 86 85
43 46 46 43 45 46 50 55 55 56 59 63 67 70 72 73 77 78 81 85 86 84
53 53 50 47 47 48 54 59 59 59 62 66 68 70 73 75 78 80 82 81 79 78
58 55 50 48 48 53 57 61 60 61 63 66 67 71 74 76 79 79 77 73 71 68
57 56 54 52 53 55 58 62 61 61 63 66 68 71 72 74 75 75 73 69 64 66
60 59 59 55 52 55 60 63 61 62 63 65 69 67 69 69 67 68 68 69 73 72
62 62 58 55 54 56 61 63 61 63 62 65 67 65 63 61 55 59 66 70 75 75
Wind_Direction_850mb
100 83 59 49 34 21 15 12 10 3 0 357 353 350 347 346 345 342 338 334 329 324
85 69 66 38 17 9 4 358 351 346 343 342 339 338 335 333 329 329 327 325 321 318
143 40 20 14 356 348 342 339 333 329 326 325 326 327 328 327 326 324 324 323 321 317
242 308 333 336 336 333 331 329 325 325 326 325 326 325 325 325 325 325 323 322 321 318
255 291 313 325 329 328 325 323 322 320 320 323 324 326 327 327 326 325 322 321 319 317
262 281 295 308 316 321 323 322 319 318 322 324 326 326 326 325 324 321 319 316 313 311
264 276 284 296 309 317 320 319 317 317 320 322 323 323 322 321 319 318 316 314 310 307
268 274 280 289 300 305 312 315 313 312 315 317 318 319 319 319 317 316 314 311 308 307
269 273 276 281 288 294 305 311 311 311 315 317 320 321 321 321 319 317 314 312 311 311
266 268 272 277 285 294 302 307 307 310 313 316 320 321 322 322 319 316 314 312 311 312
266 266 268 276 285 292 298 303 303 306 310 315 321 322 322 320 317 314 314 314 317 318
269 263 265 272 281 287 295 299 298 303 310 316 320 321 319 318 316 315 314 319 324 324
267 263 264 270 279 288 294 297 298 303 310 315 319 321 320 319 316 315 319 324 324 323
264 262 266 272 280 287 295 296 297 303 311 315 317 319 319 321 320 323 323 315 314 316